START_TIME,STEP,MOV.,M6,t_acc.,M7,t_acc.,M19,t_acc.,H36,t_acc.
1981-08-27 15:00:27.880 ,3,0,0.,12.0,0.,12.0,0.,12.0,0.,12.0
1981-08-27 15:00:39.880 ,3,0,0.,12.0,0.,12.0,0.,12.0,0.,12.0
1981-08-27 15:00:51.880 ,4,1,0.,12.0,0.,12.0,0.,12.0,0.,12.0
1981-08-27 15:01:03.880 ,4,1,0.,12.0,0.,12.0,0.,12.0,0.,12.0
1981-08-27 15:01:15.880 ,4,0,0.,12.0,0.,12.0,0.,12.0,0.,12.0
1981-08-27 15:01:27.880 ,4,0,0.,12.0,0.,12.0,0.,12.0,0.,12.0
1981-08-27 15:01:39.880 ,5,1,0.,12.0,0.,12.0,0.,12.0,0.,12.0
1981-08-27 15:01:51.880 ,5,1,0.,12.0,0.,12.0,0.,12.0,0.,12.0
1981-08-27 15:02:03.880 ,5,0,0.,12.0,0.,12.0,0.,12.0,0.,12.0
1981-08-27 15:02:15.880 ,5,0,0.,12.0,0.,12.0,0.,12.0,0.,12.0
1981-08-27 15:02:27.880 ,6,1,0.,12.0,0.,12.0,0.,12.0,0.,12.0
1981-08-27 15:02:39.880 ,6,1,0.,12.0,0.,12.0,0.,12.0,0.,12.0
1981-08-27 15:02:51.880 ,6,0,0.,12.0,0.,12.0,0.,12.0,0.,12.0
1981-08-27 15:03:03.880 ,6,0,0.,12.0,0.,12.0,0.,12.0,0.,12.0
1981-08-27 15:03:15.880 ,7,1,0.,12.0,0.,12.0,0.,12.0,0.,12.0
1981-08-27 15:03:27.880 ,7,1,0.,12.0,0.,12.0,0.,12.0,0.,12.0
1981-08-27 15:03:39.880 ,7,0,0.,12.0,0.,12.0,0.,12.0,0.,12.0
1981-08-27 15:03:51.880 ,7,0,0.,12.0,0.,12.0,0.,12.0,0.,12.0
1981-08-27 15:04:03.880 ,7,1,0.,12.0,0.,12.0,0.,12.0,0.,12.0
1981-08-27 15:04:15.880 ,7,1,0.,12.0,0.,12.0,0.,12.0,0.,12.0
1981-08-27 15:04:27.880 ,6,1,0.,12.0,0.,12.0,0.,12.0,0.,12.0
1981-08-27 15:04:39.880 ,6,1,0.,12.0,0.,12.0,0.,12.0,0.,12.0
1981-08-27 15:04:51.880 ,5,1,0.,12.0,0.,12.0,0.,12.0,0.,12.0
1981-08-27 15:05:03.880 ,5,1,0.,12.0,0.,12.0,0.,12.0,0.,12.0
1981-08-27 15:05:15.880 ,4,1,0.,12.0,0.,12.0,0.,12.0,0.,12.0
1981-08-27 15:05:27.880 ,4,1,0.,12.0,0.,12.0,0.,12.0,0.,12.0
1981-08-27 15:06:27.880 ,0,0,0.,12.0,0.,12.0,0.,12.0,0.,12.0
1981-08-27 15:06:39.880 ,0,0,0.,12.0,0.,12.0,0.,12.0,0.,12.0
1981-08-27 15:06:51.880 ,0,1,0.,12.0,0.,12.0,0.,12.0,0.,12.0
1981-08-27 15:07:03.880 ,0,1,0.,12.0,0.,12.0,0.,12.0,0.,12.0
1981-08-27 15:07:15.880 ,0,1,0.,12.0,0.,12.0,0.,12.0,0.,12.0
1981-08-27 15:07:27.880 ,0,1,0.,12.0,0.,12.0,0.,12.0,0.,12.0
1981-08-27 15:07:39.880 ,1,1,0.,12.0,0.,12.0,0.,12.0,0.,12.0
1981-08-27 15:07:51.880 ,1,1,0.,12.0,0.,12.0,0.,12.0,0.,12.0
1981-08-27 15:08:03.880 ,2,1,0.,12.0,0.,12.0,0.,12.0,0.,12.0
1981-08-27 15:08:15.880 ,2,1,0.,12.0,0.,12.0,0.,12.0,0.,12.0
1981-08-27 15:08:27.880 ,3,1,0.,12.0,0.,12.0,0.,12.0,0.,12.0
1981-08-27 15:08:39.880 ,3,1,0.,12.0,0.,12.0,0.,12.0,0.,12.0
1981-08-27 15:08:51.880 ,4,1,0.,12.0,0.,12.0,0.,12.0,0.,12.0
1981-08-27 15:09:03.880 ,4,1,0.,12.0,0.,12.0,0.,12.0,0.,12.0
1981-08-27 15:09:15.880 ,5,1,0.,12.0,0.,12.0,0.,12.0,0.,12.0
1981-08-27 15:09:27.880 ,5,1,0.,12.0,0.,12.0,0.,12.0,0.,12.0
1981-08-27 15:09:39.880 ,6,1,0.,12.0,0.,12.0,0.,12.0,0.,12.0
1981-08-27 15:09:51.880 ,6,1,0.,12.0,0.,12.0,0.,12.0,0.,12.0
1981-08-27 15:10:03.880 ,7,1,0.,12.0,0.,12.0,0.,12.0,0.,12.0
1981-08-27 15:10:15.880 ,7,1,0.,12.0,0.,12.0,0.,12.0,0.,12.0
1981-08-27 15:10:27.880 ,7,1,0.,12.0,0.,12.0,0.,12.0,0.,12.0
1981-08-27 15:10:39.880 ,7,1,0.,12.0,0.,12.0,0.,12.0,0.,12.0
1981-08-27 15:10:51.880 ,7,0,0.,12.0,0.,12.0,0.,12.0,0.,12.0
1981-08-27 15:11:03.880 ,7,0,0.,12.0,0.,12.0,0.,12.0,0.,12.0
1981-08-27 15:11:15.880 ,6,1,0.,12.0,0.,12.0,0.,12.0,0.,12.0
1981-08-27 15:11:27.880 ,6,1,0.,12.0,0.,12.0,0.,12.0,0.,12.0
1981-08-27 15:11:39.880 ,6,0,0.,12.0,0.,12.0,0.,12.0,0.,12.0
1981-08-27 15:11:51.880 ,6,0,0.,12.0,0.,12.0,0.,12.0,0.,12.0
1981-08-27 15:12:03.880 ,5,1,0.,12.0,0.,12.0,0.,12.0,0.,12.0
1981-08-27 15:12:15.880 ,5,1,0.,12.0,0.,12.0,0.,12.0,0.,12.0
1981-08-27 15:12:27.880 ,5,0,0.,12.0,0.,12.0,0.,12.0,0.,12.0
1981-08-27 15:12:39.880 ,5,0,0.,12.0,0.,12.0,0.,12.0,0.,12.0
1981-08-27 15:12:51.880 ,4,1,0.,12.0,0.,12.0,0.,12.0,0.,12.0
1981-08-27 15:13:03.880 ,4,1,0.,12.0,0.,12.0,0.,12.0,0.,12.0
1981-08-27 15:13:15.880 ,4,0,0.,12.0,0.,12.0,0.,12.0,0.,12.0
1981-08-27 15:13:27.880 ,4,0,0.,12.0,0.,12.0,0.,12.0,0.,12.0
1981-08-27 15:13:39.880 ,3,1,0.,12.0,0.,12.0,0.,12.0,0.,12.0
1981-08-27 15:13:51.880 ,3,1,0.,12.0,0.,12.0,0.,12.0,0.,12.0
1981-08-27 15:14:03.880 ,3,0,0.,12.0,0.,12.0,0.,12.0,0.,12.0
1981-08-27 15:14:15.880 ,3,0,0.,12.0,0.,12.0,0.,12.0,0.,12.0
1981-08-27 15:14:27.880 ,2,1,0.,12.0,0.,12.0,0.,12.0,0.,12.0
1981-08-27 15:14:39.880 ,2,1,0.,12.0,0.,12.0,0.,12.0,0.,12.0
1981-08-27 15:14:51.880 ,2,0,0.,12.0,0.,12.0,0.,12.0,0.,12.0
1981-08-27 15:15:03.880 ,2,0,0.,12.0,0.,12.0,0.,12.0,0.,12.0
1981-08-27 15:15:15.880 ,1,1,0.,12.0,0.,12.0,0.,12.0,0.,12.0
1981-08-27 15:15:27.880 ,1,1,0.,12.0,0.,12.0,0.,12.0,0.,12.0
1981-08-27 15:15:39.880 ,1,0,0.,12.0,0.,12.0,0.,12.0,0.,12.0
1981-08-27 15:15:51.880 ,1,0,0.,12.0,0.,12.0,0.,12.0,0.,12.0
1981-08-27 15:16:03.880 ,0,1,0.,12.0,0.,12.0,0.,12.0,0.,12.0
1981-08-27 15:16:15.880 ,0,1,0.,12.0,0.,12.0,0.,12.0,0.,12.0
1981-08-27 15:16:27.880 ,0,0,0.,12.0,0.,12.0,0.,12.0,0.,12.0
1981-08-27 15:16:39.880 ,0,0,0.,12.0,0.,12.0,0.,12.0,0.,12.0
1981-08-27 15:16:51.880 ,0,1,0.,12.0,0.,12.0,0.,12.0,0.,12.0
1981-08-27 15:17:03.880 ,0,1,0.,12.0,0.,12.0,0.,12.0,0.,12.0
1981-08-27 15:17:15.880 ,0,0,0.,12.0,0.,12.0,0.,12.0,0.,12.0
1981-08-27 15:17:27.880 ,0,0,0.,12.0,0.,12.0,0.,12.0,0.,12.0
1981-08-27 15:17:39.880 ,1,1,0.,12.0,0.,12.0,0.,12.0,0.,12.0
1981-08-27 15:17:51.880 ,1,1,0.,12.0,0.,12.0,0.,12.0,0.,12.0
1981-08-27 15:18:03.880 ,1,0,0.,12.0,0.,12.0,0.,12.0,0.,12.0
1981-08-27 15:18:15.880 ,1,0,0.,12.0,0.,12.0,0.,12.0,0.,12.0
1981-08-27 15:18:27.880 ,2,1,0.,12.0,0.,12.0,0.,12.0,0.,12.0
1981-08-27 15:18:39.880 ,2,1,0.,12.0,0.,12.0,0.,12.0,0.,12.0
1981-08-27 15:18:51.880 ,2,0,0.,12.0,0.,12.0,0.,12.0,0.,12.0
1981-08-27 15:19:03.880 ,2,0,0.,12.0,0.,12.0,0.,12.0,0.,12.0
1981-08-27 15:19:15.880 ,3,1,0.,12.0,0.,12.0,0.,12.0,0.,12.0
1981-08-27 15:19:27.880 ,3,1,0.,12.0,0.,12.0,0.,12.0,0.,12.0
1981-08-27 15:19:39.880 ,3,0,0.,12.0,0.,12.0,0.,12.0,0.,12.0
1981-08-27 15:19:51.880 ,3,0,0.,12.0,0.,12.0,0.,12.0,0.,12.0
1981-08-27 15:20:03.880 ,4,1,0.,12.0,0.,12.0,0.,12.0,0.,12.0
1981-08-27 15:20:15.880 ,4,1,0.,12.0,0.,12.0,0.,12.0,0.,12.0
1981-08-27 15:20:27.880 ,4,0,0.,12.0,0.,12.0,0.,12.0,0.,12.0
1981-08-27 15:20:39.880 ,4,0,0.,12.0,0.,12.0,0.,12.0,0.,12.0
1981-08-27 15:20:51.880 ,5,1,0.,12.0,0.,12.0,0.,12.0,0.,12.0
1981-08-27 15:21:03.880 ,5,1,0.,12.0,0.,12.0,0.,12.0,0.,12.0
1981-08-27 15:21:15.880 ,5,0,0.,12.0,0.,12.0,0.,12.0,0.,12.0
1981-08-27 15:21:27.880 ,5,0,0.,12.0,0.,12.0,0.,12.0,0.,12.0
1981-08-27 15:21:39.880 ,6,1,0.,12.0,0.,12.0,0.,12.0,0.,12.0
1981-08-27 15:21:51.880 ,6,1,0.,12.0,0.,12.0,0.,12.0,0.,12.0
1981-08-27 15:22:03.880 ,6,0,0.,12.0,0.,12.0,0.,12.0,0.,12.0
1981-08-27 15:22:15.880 ,6,0,0.,12.0,0.,12.0,0.,12.0,0.,12.0
1981-08-27 15:22:27.880 ,7,1,0.,12.0,0.,12.0,0.,12.0,0.,12.0
1981-08-27 15:22:39.880 ,7,1,0.,12.0,0.,12.0,0.,12.0,0.,12.0
1981-08-27 15:22:51.880 ,7,0,0.,12.0,0.,12.0,0.,12.0,0.,12.0
1981-08-27 15:23:03.880 ,7,0,0.,12.0,0.,12.0,0.,12.0,0.,12.0
1981-08-27 15:23:15.880 ,7,1,0.,12.0,0.,12.0,0.,12.0,0.,12.0
1981-08-27 15:23:27.880 ,7,1,0.,12.0,0.,12.0,0.,12.0,0.,12.0
1981-08-27 15:23:39.880 ,6,1,0.,12.0,0.,12.0,0.,12.0,0.,12.0
1981-08-27 15:23:51.880 ,6,1,0.,12.0,0.,12.0,0.,12.0,0.,12.0
1981-08-27 15:24:03.880 ,5,1,0.,12.0,0.,12.0,0.,12.0,0.,12.0
1981-08-27 15:24:15.880 ,5,1,0.,12.0,0.,12.0,0.,12.0,0.,12.0
1981-08-27 15:24:27.880 ,4,1,0.,12.0,0.,12.0,0.,12.0,0.,12.0
1981-08-27 15:24:39.880 ,4,1,0.,12.0,0.,12.0,0.,12.0,0.,12.0
1981-08-27 15:24:51.880 ,3,1,0.,12.0,0.,12.0,0.,12.0,0.,12.0
1981-08-27 15:25:03.880 ,3,1,0.,12.0,0.,12.0,0.,12.0,0.,12.0
1981-08-27 15:25:15.880 ,2,1,0.,12.0,0.,12.0,0.,12.0,0.,12.0
1981-08-27 15:25:27.880 ,2,1,0.,12.0,0.,12.0,0.,12.0,0.,12.0
1981-08-27 15:25:39.880 ,1,1,0.,12.0,0.,12.0,0.,12.0,0.,12.0
1981-08-27 15:25:51.880 ,1,1,0.,12.0,0.,12.0,0.,12.0,0.,12.0
1981-08-27 15:26:03.880 ,0,1,0.,12.0,0.,12.0,0.,12.0,0.,12.0
1981-08-27 15:26:15.880 ,0,1,0.,12.0,0.,12.0,0.,12.0,0.,12.0
1981-08-27 15:26:27.880 ,0,1,0.,12.0,0.,12.0,0.,12.0,0.,12.0
1981-08-27 15:26:39.880 ,0,1,0.,12.0,0.,12.0,0.,12.0,0.,12.0
1981-08-27 15:26:51.880 ,1,1,0.,12.0,0.,12.0,0.,12.0,0.,12.0
1981-08-27 15:27:03.880 ,1,1,0.,12.0,0.,12.0,0.,12.0,0.,12.0
1981-08-27 15:27:15.880 ,2,1,0.,12.0,0.,12.0,0.,12.0,0.,12.0
1981-08-27 15:27:27.880 ,2,1,0.,12.0,0.,12.0,0.,12.0,0.,12.0
1981-08-27 15:27:39.880 ,3,1,0.,12.0,0.,12.0,0.,12.0,0.,12.0
1981-08-27 15:27:51.880 ,3,1,0.,12.0,0.,12.0,0.,12.0,0.,12.0
1981-08-27 15:28:03.880 ,4,1,0.,12.0,0.,12.0,0.,12.0,0.,12.0
1981-08-27 15:28:15.880 ,4,1,0.,12.0,0.,12.0,0.,12.0,0.,12.0
1981-08-27 15:28:27.880 ,5,1,0.,12.0,0.,12.0,0.,12.0,0.,12.0
1981-08-27 15:28:39.880 ,5,1,0.,12.0,0.,12.0,0.,12.0,0.,12.0
1981-08-27 15:28:51.880 ,6,1,0.,12.0,0.,12.0,0.,12.0,0.,12.0
1981-08-27 15:29:03.880 ,6,1,0.,12.0,0.,12.0,0.,12.0,0.,12.0
1981-08-27 15:29:15.880 ,7,1,0.,12.0,0.,12.0,0.,12.0,0.,12.0
1981-08-27 15:29:27.880 ,7,1,0.,12.0,0.,12.0,0.,12.0,0.,12.0
1981-08-27 15:29:39.880 ,7,1,0.,12.0,0.,12.0,0.,12.0,0.,12.0
1981-08-27 15:29:51.880 ,7,1,0.,12.0,0.,12.0,0.,12.0,0.,12.0
1981-08-27 15:30:03.880 ,7,0,0.,12.0,0.,12.0,0.,12.0,0.,12.0
1981-08-27 15:30:15.880 ,7,0,0.,12.0,0.,12.0,0.,12.0,0.,12.0
1981-08-27 15:30:27.880 ,6,1,0.,12.0,0.,12.0,0.,12.0,0.,12.0
1981-08-27 15:30:39.880 ,6,1,0.,12.0,0.,12.0,0.,12.0,0.,12.0
1981-08-27 15:30:51.880 ,6,0,0.,12.0,0.,12.0,0.,12.0,0.,12.0
1981-08-27 15:31:03.880 ,6,0,0.,12.0,0.,12.0,0.,12.0,0.,12.0
1981-08-27 15:31:15.880 ,5,1,0.,12.0,0.,12.0,0.,12.0,0.,12.0
1981-08-27 15:31:27.880 ,5,1,0.,12.0,0.,12.0,0.,12.0,0.,12.0
1981-08-27 15:31:39.880 ,5,0,0.,12.0,0.,12.0,0.,12.0,0.,12.0
1981-08-27 15:31:51.880 ,5,0,0.,12.0,0.,12.0,0.,12.0,0.,12.0
1981-08-27 15:32:03.880 ,4,1,0.,12.0,0.,12.0,0.,12.0,0.,12.0
1981-08-27 15:32:15.880 ,4,1,0.,12.0,0.,12.0,0.,12.0,0.,12.0
1981-08-27 15:32:27.880 ,4,0,0.,12.0,0.,12.0,0.,12.0,0.,12.0
1981-08-27 15:32:39.880 ,4,0,0.,12.0,0.,12.0,0.,12.0,0.,12.0
1981-08-27 15:32:51.880 ,3,1,0.,12.0,0.,12.0,0.,12.0,0.,12.0
1981-08-27 15:33:03.880 ,3,1,0.,12.0,0.,12.0,0.,12.0,0.,12.0
1981-08-27 15:33:15.880 ,3,0,0.,12.0,0.,12.0,0.,12.0,0.,12.0
1981-08-27 15:33:27.880 ,3,0,0.,12.0,0.,12.0,0.,12.0,0.,12.0
1981-08-27 15:33:39.880 ,2,1,0.,12.0,0.,12.0,0.,12.0,0.,12.0
1981-08-27 15:33:51.880 ,2,1,0.,12.0,0.,12.0,0.,12.0,0.,12.0
1981-08-27 15:34:03.880 ,2,0,0.,12.0,0.,12.0,0.,12.0,0.,12.0
1981-08-27 15:34:15.880 ,2,0,0.,12.0,0.,12.0,0.,12.0,0.,12.0
1981-08-27 15:34:27.880 ,1,1,0.,12.0,0.,12.0,0.,12.0,0.,12.0
1981-08-27 15:34:39.880 ,1,1,0.,12.0,0.,12.0,0.,12.0,0.,12.0
1981-08-27 15:34:51.880 ,1,0,0.,12.0,0.,12.0,0.,12.0,0.,12.0
1981-08-27 15:35:03.880 ,1,0,0.,12.0,0.,12.0,0.,12.0,0.,12.0
1981-08-27 15:35:15.880 ,0,1,0.,12.0,0.,12.0,0.,12.0,0.,12.0
1981-08-27 15:35:27.880 ,0,1,0.,12.0,0.,12.0,0.,12.0,0.,12.0
1981-08-27 15:35:39.880 ,0,0,0.,12.0,0.,12.0,0.,12.0,0.,12.0
1981-08-27 15:35:51.880 ,0,0,0.,12.0,0.,12.0,0.,12.0,0.,12.0
1981-08-27 15:36:03.880 ,0,1,0.,12.0,0.,12.0,0.,12.0,0.,12.0
1981-08-27 15:36:15.880 ,0,1,0.,12.0,0.,12.0,0.,12.0,0.,12.0
1981-08-27 15:36:27.880 ,0,0,0.,12.0,0.,12.0,0.,12.0,0.,12.0
1981-08-27 15:36:39.880 ,0,0,0.,12.0,0.,12.0,0.,12.0,0.,12.0
1981-08-27 15:36:51.880 ,1,1,0.,12.0,0.,12.0,0.,12.0,0.,12.0
1981-08-27 15:37:03.880 ,1,1,0.,12.0,0.,12.0,0.,12.0,0.,12.0
1981-08-27 15:37:15.880 ,1,0,0.,12.0,0.,12.0,0.,12.0,0.,12.0
1981-08-27 15:37:27.880 ,1,0,0.,12.0,0.,12.0,0.,12.0,0.,12.0
1981-08-27 15:37:39.880 ,2,1,0.,12.0,0.,12.0,0.,12.0,0.,12.0
1981-08-27 15:37:51.880 ,2,1,0.,12.0,0.,12.0,0.,12.0,0.,12.0
1981-08-27 15:38:03.880 ,2,0,0.,12.0,0.,12.0,0.,12.0,0.,12.0
1981-08-27 15:38:15.880 ,2,0,0.,12.0,0.,12.0,0.,12.0,0.,12.0
1981-08-27 15:38:27.880 ,3,1,0.,12.0,0.,12.0,0.,12.0,0.,12.0
1981-08-27 15:38:39.880 ,3,1,0.,12.0,0.,12.0,0.,12.0,0.,12.0
1981-08-27 15:38:51.880 ,3,0,0.,12.0,0.,12.0,0.,12.0,0.,12.0
1981-08-27 15:39:03.880 ,3,0,0.,12.0,0.,12.0,0.,12.0,0.,12.0
1981-08-27 15:39:15.880 ,4,1,0.,12.0,0.,12.0,0.,12.0,0.,12.0
1981-08-27 15:39:27.880 ,4,1,0.,12.0,0.,12.0,0.,12.0,0.,12.0
1981-08-27 15:39:39.880 ,4,0,0.,12.0,0.,12.0,0.,12.0,0.,12.0
1981-08-27 15:39:51.880 ,4,0,0.,12.0,0.,12.0,0.,12.0,0.,12.0
1981-08-27 15:40:03.880 ,5,1,0.,12.0,0.,12.0,0.,12.0,0.,12.0
1981-08-27 15:40:15.880 ,5,1,0.,12.0,0.,12.0,0.,12.0,0.,12.0
1981-08-27 15:40:27.880 ,5,0,0.,12.0,0.,12.0,0.,12.0,0.,12.0
1981-08-27 15:40:39.880 ,5,0,0.,12.0,0.,12.0,0.,12.0,0.,12.0
1981-08-27 15:40:51.880 ,6,1,0.,12.0,0.,12.0,0.,12.0,0.,12.0
1981-08-27 15:41:03.880 ,6,1,0.,12.0,0.,12.0,0.,12.0,0.,12.0
1981-08-27 15:41:15.880 ,6,0,0.,12.0,0.,12.0,0.,12.0,0.,12.0
1981-08-27 15:41:27.880 ,6,0,0.,12.0,0.,12.0,0.,12.0,0.,12.0
1981-08-27 15:41:39.880 ,7,1,0.,12.0,0.,12.0,0.,12.0,0.,12.0
1981-08-27 15:41:51.880 ,7,1,0.,12.0,0.,12.0,0.,12.0,0.,12.0
1981-08-27 15:42:03.880 ,7,0,0.,12.0,0.,12.0,0.,12.0,0.,12.0
1981-08-27 15:42:15.880 ,7,0,0.,12.0,0.,12.0,0.,12.0,0.,12.0
1981-08-27 15:42:27.880 ,7,1,0.,12.0,0.,12.0,0.,12.0,0.,12.0
1981-08-27 15:42:39.880 ,7,1,0.,12.0,0.,12.0,0.,12.0,0.,12.0
1981-08-27 15:42:51.880 ,6,1,0.,12.0,0.,12.0,0.,12.0,0.,12.0
1981-08-27 15:43:03.880 ,6,1,0.,12.0,0.,12.0,0.,12.0,0.,12.0
1981-08-27 15:43:15.880 ,5,1,0.,12.0,0.,12.0,0.,12.0,0.,12.0
1981-08-27 15:43:27.880 ,5,1,0.,12.0,0.,12.0,0.,12.0,0.,12.0
1981-08-27 15:43:39.880 ,4,1,0.,12.0,0.,12.0,0.,12.0,0.,12.0
1981-08-27 15:43:51.880 ,4,1,0.,12.0,0.,12.0,0.,12.0,0.,12.0
1981-08-27 15:44:03.880 ,3,1,0.,12.0,0.,12.0,0.,12.0,0.,12.0
1981-08-27 15:44:15.880 ,3,1,0.,12.0,0.,12.0,0.,12.0,0.,12.0
1981-08-27 15:44:27.880 ,2,1,0.,12.0,0.,12.0,0.,12.0,0.,12.0
1981-08-27 15:44:39.880 ,2,1,0.,12.0,0.,12.0,0.,12.0,0.,12.0
1981-08-27 15:44:51.880 ,1,1,0.,12.0,0.,12.0,0.,12.0,0.,12.0
1981-08-27 15:45:03.880 ,1,1,0.,12.0,0.,12.0,0.,12.0,0.,12.0
1981-08-27 15:45:15.880 ,0,1,0.,12.0,0.,12.0,0.,12.0,0.,12.0
1981-08-27 15:45:27.880 ,0,1,0.,12.0,0.,12.0,0.,12.0,0.,12.0
1981-08-27 15:45:39.880 ,0,1,0.,12.0,0.,12.0,0.,12.0,0.,12.0
1981-08-27 15:45:51.880 ,0,1,0.,12.0,0.,12.0,0.,12.0,0.,12.0
1981-08-27 15:46:03.880 ,1,1,0.,12.0,0.,12.0,0.,12.0,0.,12.0
1981-08-27 15:46:15.880 ,1,1,0.,12.0,0.,12.0,0.,12.0,0.,12.0
1981-08-27 15:46:27.880 ,2,1,0.,12.0,0.,12.0,0.,12.0,0.,12.0
1981-08-27 15:46:39.880 ,2,1,0.,12.0,0.,12.0,0.,12.0,0.,12.0
1981-08-27 15:46:51.880 ,3,1,0.,12.0,0.,12.0,0.,12.0,0.,12.0
1981-08-27 15:47:03.880 ,3,1,0.,12.0,0.,12.0,0.,12.0,0.,12.0
1981-08-27 15:47:15.880 ,4,1,0.,12.0,0.,12.0,0.,12.0,0.,12.0
1981-08-27 15:47:27.880 ,4,1,0.,12.0,0.,12.0,0.,12.0,0.,12.0
1981-08-27 15:47:39.880 ,5,1,0.,12.0,0.,12.0,0.,12.0,0.,12.0
1981-08-27 15:47:51.880 ,5,1,0.,12.0,0.,12.0,0.,12.0,0.,12.0
1981-08-27 15:48:03.880 ,6,1,0.,12.0,0.,12.0,0.,12.0,0.,12.0
1981-08-27 15:48:15.880 ,6,1,0.,12.0,0.,12.0,0.,12.0,0.,12.0
1981-08-27 15:48:27.880 ,7,1,0.,12.0,0.,12.0,0.,12.0,0.,12.0
1981-08-27 15:48:39.880 ,7,1,0.,12.0,0.,12.0,0.,12.0,0.,12.0
1981-08-27 15:48:51.880 ,7,1,0.,12.0,0.,12.0,0.,12.0,0.,12.0
1981-08-27 15:49:03.880 ,7,1,0.,12.0,0.,12.0,0.,12.0,0.,12.0
1981-08-27 15:49:15.880 ,7,0,0.,12.0,0.,12.0,0.,12.0,0.,12.0
1981-08-27 15:49:27.880 ,7,0,0.,12.0,0.,12.0,0.,12.0,0.,12.0
1981-08-27 15:49:39.880 ,6,1,0.,12.0,0.,12.0,0.,12.0,0.,12.0
1981-08-27 15:49:51.880 ,6,1,0.,12.0,0.,12.0,0.,12.0,0.,12.0
1981-08-27 15:50:03.880 ,6,0,0.,12.0,0.,12.0,0.,12.0,0.,12.0
1981-08-27 15:50:15.880 ,6,0,0.,12.0,0.,12.0,0.,12.0,0.,12.0
1981-08-27 15:50:27.880 ,5,1,0.,12.0,0.,12.0,0.,12.0,0.,12.0
1981-08-27 15:50:39.880 ,5,1,0.,12.0,0.,12.0,0.,12.0,0.,12.0
1981-08-27 15:50:51.880 ,5,0,0.,12.0,0.,12.0,0.,12.0,0.,12.0
1981-08-27 15:51:03.880 ,5,0,0.,12.0,0.,12.0,0.,12.0,0.,12.0
1981-08-27 15:51:15.880 ,4,1,0.,12.0,0.,12.0,0.,12.0,0.,12.0
1981-08-27 15:51:27.880 ,4,1,0.,12.0,0.,12.0,0.,12.0,0.,12.0
1981-08-27 15:51:39.880 ,4,0,0.,12.0,0.,12.0,0.,12.0,0.,12.0
1981-08-27 15:51:51.880 ,4,0,0.,12.0,0.,12.0,0.,12.0,0.,12.0
1981-08-27 15:52:03.880 ,3,1,0.,12.0,0.,12.0,0.,12.0,0.,12.0
1981-08-27 15:52:15.880 ,3,1,0.,12.0,0.,12.0,0.,12.0,0.,12.0
1981-08-27 15:52:27.880 ,3,0,0.,12.0,0.,12.0,0.,12.0,0.,12.0
1981-08-27 15:52:39.880 ,3,0,0.,12.0,0.,12.0,0.,12.0,0.,12.0
1981-08-27 15:52:51.880 ,2,1,0.,12.0,0.,12.0,0.,12.0,0.,12.0
1981-08-27 15:53:03.880 ,2,1,0.,12.0,0.,12.0,0.,12.0,0.,12.0
1981-08-27 15:53:15.880 ,2,0,0.,12.0,0.,12.0,0.,12.0,0.,12.0
1981-08-27 15:53:27.880 ,2,0,0.,12.0,0.,12.0,0.,12.0,0.,12.0
1981-08-27 15:53:39.880 ,1,1,0.,12.0,0.,12.0,0.,12.0,0.,12.0
1981-08-27 15:53:51.880 ,1,1,0.,12.0,0.,12.0,0.,12.0,0.,12.0
1981-08-27 15:54:03.880 ,1,0,0.,12.0,0.,12.0,0.,12.0,0.,12.0
1981-08-27 15:54:15.880 ,1,0,0.,12.0,0.,12.0,0.,12.0,0.,12.0
1981-08-27 15:54:27.880 ,0,1,0.,12.0,0.,12.0,0.,12.0,0.,12.0
1981-08-27 15:54:39.880 ,0,1,0.,12.0,0.,12.0,0.,12.0,0.,12.0
1981-08-27 15:54:51.880 ,0,0,0.,12.0,0.,12.0,0.,12.0,0.,12.0
1981-08-27 15:55:03.880 ,0,0,0.,12.0,0.,12.0,0.,12.0,0.,12.0
1981-08-27 15:55:15.880 ,0,1,0.,12.0,0.,12.0,0.,12.0,0.,12.0
1981-08-27 15:55:27.880 ,0,1,0.,12.0,0.,12.0,0.,12.0,0.,12.0
1981-08-27 15:55:39.880 ,0,0,0.,12.0,0.,12.0,0.,12.0,0.,12.0
1981-08-27 15:55:51.880 ,0,0,0.,12.0,0.,12.0,0.,12.0,0.,12.0
1981-08-27 15:56:03.880 ,1,1,0.,12.0,0.,12.0,0.,12.0,0.,12.0
1981-08-27 15:56:15.880 ,1,1,0.,12.0,0.,12.0,0.,12.0,0.,12.0
1981-08-27 15:56:27.880 ,1,0,0.,12.0,0.,12.0,0.,12.0,0.,12.0
1981-08-27 15:56:39.880 ,1,0,0.,12.0,0.,12.0,0.,12.0,0.,12.0
1981-08-27 15:56:51.880 ,2,1,0.,12.0,0.,12.0,0.,12.0,0.,12.0
1981-08-27 15:57:03.880 ,2,1,0.,12.0,0.,12.0,0.,12.0,0.,12.0
1981-08-27 15:57:15.880 ,2,0,0.,12.0,0.,12.0,0.,12.0,0.,12.0
1981-08-27 15:57:27.880 ,2,0,0.,12.0,0.,12.0,0.,12.0,0.,12.0
1981-08-27 15:57:39.880 ,3,1,0.,12.0,0.,12.0,0.,12.0,0.,12.0
1981-08-27 15:57:51.880 ,3,1,0.,12.0,0.,12.0,0.,12.0,0.,12.0
1981-08-27 15:58:03.880 ,3,0,0.,12.0,0.,12.0,0.,12.0,0.,12.0
1981-08-27 15:58:15.880 ,3,0,0.,12.0,0.,12.0,0.,12.0,0.,12.0
1981-08-27 15:58:27.880 ,4,1,0.,12.0,0.,12.0,0.,12.0,0.,12.0
1981-08-27 15:58:39.880 ,4,1,0.,12.0,0.,12.0,0.,12.0,0.,12.0
1981-08-27 15:58:51.880 ,4,0,0.,12.0,0.,12.0,0.,12.0,0.,12.0
1981-08-27 15:59:03.880 ,4,0,0.,12.0,0.,12.0,0.,12.0,0.,12.0
1981-08-27 15:59:15.880 ,5,1,0.,12.0,0.,12.0,0.,12.0,0.,12.0
1981-08-27 15:59:27.880 ,5,1,0.,12.0,0.,12.0,0.,12.0,0.,12.0
1981-08-27 15:59:39.880 ,5,0,0.,12.0,0.,12.0,0.,12.0,0.,12.0
1981-08-27 15:59:51.880 ,5,0,0.,12.0,0.,12.0,0.,12.0,0.,12.0
1981-08-27 16:00:03.880 ,6,1,0.,12.0,0.,12.0,0.,12.0,0.,12.0
1981-08-27 16:00:15.880 ,6,1,0.,12.0,0.,12.0,0.,12.0,0.,12.0
1981-08-27 16:00:27.880 ,6,0,0.,12.0,0.,12.0,0.,12.0,0.,12.0
1981-08-27 16:00:39.880 ,6,0,0.,12.0,0.,12.0,0.,12.0,0.,12.0
1981-08-27 16:00:51.880 ,7,1,0.,12.0,0.,12.0,0.,12.0,0.,12.0
1981-08-27 16:01:03.880 ,7,1,0.,12.0,0.,12.0,0.,12.0,0.,12.0
1981-08-27 16:01:15.880 ,7,0,0.,12.0,0.,12.0,0.,12.0,0.,12.0
1981-08-27 16:01:27.880 ,7,0,0.,12.0,0.,12.0,0.,12.0,0.,12.0
1981-08-27 16:01:39.880 ,7,1,0.,12.0,0.,12.0,0.,12.0,0.,12.0
1981-08-27 16:01:51.880 ,7,1,0.,12.0,0.,12.0,0.,12.0,0.,12.0
1981-08-27 16:02:03.880 ,6,1,0.,12.0,0.,12.0,0.,12.0,0.,12.0
1981-08-27 16:02:15.880 ,6,1,0.,12.0,0.,12.0,0.,12.0,0.,12.0
1981-08-27 16:02:27.880 ,5,1,0.,12.0,0.,12.0,0.,12.0,0.,12.0
1981-08-27 16:02:39.880 ,5,1,0.,12.0,0.,12.0,0.,12.0,0.,12.0
1981-08-27 16:02:51.880 ,4,1,0.,12.0,0.,12.0,0.,12.0,0.,12.0
1981-08-27 16:03:03.880 ,4,1,0.,12.0,0.,12.0,0.,12.0,0.,12.0
1981-08-27 16:03:15.880 ,3,1,0.,12.0,0.,12.0,0.,12.0,0.,12.0
1981-08-27 16:03:27.880 ,3,1,0.,12.0,0.,12.0,0.,12.0,0.,12.0
1981-08-27 16:03:39.880 ,2,1,0.,12.0,0.,12.0,0.,12.0,0.,12.0
1981-08-27 16:03:51.880 ,2,1,0.,12.0,0.,12.0,0.,12.0,0.,12.0
1981-08-27 16:04:03.880 ,1,1,0.,12.0,0.,12.0,0.,12.0,0.,12.0
1981-08-27 16:04:15.880 ,1,1,0.,12.0,0.,12.0,0.,12.0,0.,12.0
1981-08-27 16:04:27.880 ,0,1,0.,12.0,0.,12.0,0.,12.0,0.,12.0
1981-08-27 16:04:39.880 ,0,1,0.,12.0,0.,12.0,0.,12.0,0.,12.0
1981-08-27 16:04:51.880 ,0,1,0.,12.0,0.,12.0,0.,12.0,0.,12.0
1981-08-27 16:05:03.880 ,0,1,0.,12.0,0.,12.0,0.,12.0,0.,12.0
1981-08-27 16:05:15.880 ,1,1,0.,12.0,0.,12.0,0.,12.0,0.,12.0
1981-08-27 16:05:27.880 ,1,1,0.,12.0,0.,12.0,0.,12.0,0.,12.0
1981-08-27 16:05:39.880 ,2,1,0.,12.0,0.,12.0,0.,12.0,0.,12.0
1981-08-27 16:05:51.880 ,2,1,0.,12.0,0.,12.0,0.,12.0,0.,12.0
1981-08-27 16:06:03.880 ,3,1,0.,12.0,0.,12.0,0.,12.0,0.,12.0
1981-08-27 16:06:15.880 ,3,1,0.,12.0,0.,12.0,0.,12.0,0.,12.0
1981-08-27 16:06:27.880 ,4,1,0.,12.0,0.,12.0,0.,12.0,0.,12.0
1981-08-27 16:06:39.880 ,4,1,0.,12.0,0.,12.0,0.,12.0,0.,12.0
1981-08-27 16:06:51.880 ,5,1,0.,12.0,0.,12.0,0.,12.0,0.,12.0
1981-08-27 16:07:03.880 ,5,1,0.,12.0,0.,12.0,0.,12.0,0.,12.0
1981-08-27 16:07:15.880 ,6,1,0.,12.0,0.,12.0,0.,12.0,0.,12.0
1981-08-27 16:07:27.880 ,6,1,0.,12.0,0.,12.0,0.,12.0,0.,12.0
1981-08-27 16:07:39.880 ,7,1,0.,12.0,0.,12.0,0.,12.0,0.,12.0
1981-08-27 16:07:51.880 ,7,1,0.,12.0,0.,12.0,0.,12.0,0.,12.0
1981-08-27 16:08:03.880 ,7,1,0.,12.0,0.,12.0,0.,12.0,0.,12.0
1981-08-27 16:08:15.880 ,7,1,0.,12.0,0.,12.0,0.,12.0,0.,12.0
1981-08-27 16:08:27.880 ,7,0,0.,12.0,0.,12.0,0.,12.0,0.,12.0
1981-08-27 16:08:39.880 ,7,0,0.,12.0,0.,12.0,0.,12.0,0.,12.0
1981-08-27 16:08:51.880 ,6,1,0.,12.0,0.,12.0,0.,12.0,0.,12.0
1981-08-27 16:09:03.880 ,6,1,0.,12.0,0.,12.0,0.,12.0,0.,12.0
1981-08-27 16:09:15.880 ,6,0,0.,12.0,0.,12.0,0.,12.0,0.,12.0
1981-08-27 16:09:27.880 ,6,0,0.,12.0,0.,12.0,0.,12.0,0.,12.0
1981-08-27 16:09:39.880 ,5,1,0.,12.0,0.,12.0,0.,12.0,0.,12.0
1981-08-27 16:09:51.880 ,5,1,0.,12.0,0.,12.0,0.,12.0,0.,12.0
1981-08-27 16:10:03.880 ,5,0,0.,12.0,0.,12.0,0.,12.0,0.,12.0
1981-08-27 16:10:15.880 ,5,0,0.,12.0,0.,12.0,0.,12.0,0.,12.0
1981-08-27 16:10:27.880 ,4,1,0.,12.0,0.,12.0,0.,12.0,0.,12.0
1981-08-27 16:10:39.880 ,4,1,0.,12.0,0.,12.0,0.,12.0,0.,12.0
1981-08-27 16:10:51.880 ,4,0,0.,12.0,0.,12.0,0.,12.0,0.,12.0
1981-08-27 16:11:03.880 ,4,0,0.,12.0,0.,12.0,0.,12.0,0.,12.0
1981-08-27 16:11:15.880 ,3,1,0.,12.0,0.,12.0,0.,12.0,0.,12.0
1981-08-27 16:11:27.880 ,3,1,0.,12.0,0.,12.0,0.,12.0,0.,12.0
1981-08-27 16:11:39.880 ,3,0,0.,12.0,0.,12.0,0.,12.0,0.,12.0
1981-08-27 16:11:51.880 ,3,0,0.,12.0,0.,12.0,0.,12.0,0.,12.0
1981-08-27 16:12:03.880 ,2,1,0.,12.0,0.,12.0,0.,12.0,0.,12.0
1981-08-27 16:12:15.880 ,2,1,0.,12.0,0.,12.0,0.,12.0,0.,12.0
1981-08-27 16:12:27.880 ,2,0,0.,12.0,0.,12.0,0.,12.0,0.,12.0
1981-08-27 16:12:39.880 ,2,0,0.,12.0,0.,12.0,0.,12.0,0.,12.0
1981-08-27 16:12:51.880 ,1,1,0.,12.0,0.,12.0,0.,12.0,0.,12.0
1981-08-27 16:13:03.880 ,1,1,0.,12.0,0.,12.0,0.,12.0,0.,12.0
1981-08-27 16:13:15.880 ,1,0,0.,12.0,0.,12.0,0.,12.0,0.,12.0
1981-08-27 16:13:27.880 ,1,0,0.,12.0,0.,12.0,0.,12.0,0.,12.0
1981-08-27 16:13:39.880 ,0,1,0.,12.0,0.,12.0,0.,12.0,0.,12.0
1981-08-27 16:13:51.880 ,0,1,0.,12.0,0.,12.0,0.,12.0,0.,12.0
1981-08-27 16:14:03.880 ,0,0,0.,12.0,0.,12.0,0.,12.0,0.,12.0
1981-08-27 16:14:15.880 ,0,0,0.,12.0,0.,12.0,0.,12.0,0.,12.0
1981-08-27 16:14:27.880 ,0,1,0.,12.0,0.,12.0,0.,12.0,0.,12.0
1981-08-27 16:14:39.880 ,0,1,0.,12.0,0.,12.0,0.,12.0,0.,12.0
1981-08-27 16:14:51.880 ,0,0,0.,12.0,0.,12.0,0.,12.0,0.,12.0
1981-08-27 16:15:03.880 ,0,0,0.,12.0,0.,12.0,0.,12.0,0.,12.0
1981-08-27 16:15:15.880 ,1,1,0.,12.0,0.,12.0,0.,12.0,0.,12.0
1981-08-27 16:15:27.880 ,1,1,0.,12.0,0.,12.0,0.,12.0,0.,12.0
1981-08-27 16:15:39.880 ,1,0,0.,12.0,0.,12.0,0.,12.0,0.,12.0
1981-08-27 16:15:51.880 ,1,0,0.,12.0,0.,12.0,0.,12.0,0.,12.0
1981-08-27 16:16:03.880 ,2,1,0.,12.0,0.,12.0,0.,12.0,0.,12.0
1981-08-27 16:16:15.880 ,2,1,0.,12.0,0.,12.0,0.,12.0,0.,12.0
1981-08-27 16:16:27.880 ,2,0,0.,12.0,0.,12.0,0.,12.0,0.,12.0
1981-08-27 16:16:39.880 ,2,0,0.,12.0,0.,12.0,0.,12.0,0.,12.0
1981-08-27 16:16:51.880 ,3,1,0.,12.0,0.,12.0,0.,12.0,0.,12.0
1981-08-27 16:17:03.880 ,3,1,0.,12.0,0.,12.0,0.,12.0,0.,12.0
1981-08-27 16:17:15.880 ,3,0,0.,12.0,0.,12.0,0.,12.0,0.,12.0
1981-08-27 16:17:27.880 ,3,0,0.,12.0,0.,12.0,0.,12.0,0.,12.0
1981-08-27 16:17:39.880 ,4,1,0.,12.0,0.,12.0,0.,12.0,0.,12.0
1981-08-27 16:17:51.880 ,4,1,0.,12.0,0.,12.0,0.,12.0,0.,12.0
1981-08-27 16:18:03.880 ,4,0,0.,12.0,0.,12.0,0.,12.0,0.,12.0
1981-08-27 16:18:15.880 ,4,0,0.,12.0,0.,12.0,0.,12.0,0.,12.0